Terug naar catalogus

FENGYUN 1C DEB

ActiefSSO
NORAD 30498·DEBRIS·🇨🇳 China

Gelanceerd May 10, 1999 vanaf Taiyuan Satellite Launch Center

Loading…

Volgende Passages (komende 24 uur)

TLE

VersSource: Space-Track

Epoch: Sep 14, 2026, 02:46 UTC

1 30498U 99025AHL 26257.11532078  .00001580  00000-0  92225-3 0  9995
2 30498  99.2270 318.8913 0100650 112.1452 279.0265 14.07441455996411

Volg FENGYUN 1C DEB in realtime met AllMySat

Download on the App Store